| time (UTC) | temp F | wind direction | speed MPH | gust MPH | rain 1hr in | rain 24hr in | rain mn in | humidity % | barometer mb |
| 20260504221050 | 77 | 5 | 9.0 | 15.0 | 0.00 | 0.00 | 0.00 | 29 | 1002.8 |
| 20260504220558 | 78 | 359 | 6.0 | 14.0 | 0.00 | 0.00 | 0.00 | 29 | 1002.7 |
| 20260504220039 | 78 | 354 | 6.0 | 15.0 | 0.00 | 0.00 | 0.00 | 30 | 1002.7 |
| 20260504215556 | 78 | 337 | 5.0 | 15.0 | 0.00 | 0.00 | 0.00 | 32 | 1002.7 |
| 20260504215052 | 78 | 314 | 6.0 | 10.0 | 0.00 | 0.00 | 0.00 | 30 | 1002.6 |
| 20260504214549 | 78 | 290 | 4.0 | 16.0 | 0.00 | 0.00 | 0.00 | 33 | 1002.7 |
| 20260504214044 | 78 | 307 | 8.0 | 16.0 | 0.00 | 0.00 | 0.00 | 31 | 1002.7 |
| 20260504213542 | 78 | 311 | 6.0 | 13.0 | 0.00 | 0.00 | 0.00 | 32 | 1002.6 |
| 20260504213038 | 78 | 321 | 6.0 | 10.0 | 0.00 | 0.00 | 0.00 | 31 | 1002.5 |
| 20260504212540 | 78 | 346 | 5.0 | 14.0 | 0.00 | 0.00 | 0.00 | 33 | 1002.6 |
| 20260504212101 | 78 | 298 | 6.0 | 15.0 | 0.00 | 0.00 | 0.00 | 31 | 1002.5 |
| 20260504211535 | 79 | 1 | 5.0 | 15.0 | 0.00 | 0.00 | 0.00 | 33 | 1002.5 |
| 20260504211054 | 79 | 334 | 6.0 | 15.0 | 0.00 | 0.00 | 0.00 | 34 | 1002.5 |
| 20260504210621 | 79 | 332 | 7.0 | 15.0 | 0.00 | 0.00 | 0.00 | 32 | 1002.5 |
| 20260504210040 | 79 | 356 | 7.0 | 15.0 | 0.00 | 0.00 | 0.00 | 32 | 1002.5 |
| 20260504205537 | 80 | 352 | 6.0 | 12.0 | 0.00 | 0.00 | 0.00 | 32 | 1002.4 |
| 20260504205035 | 80 | 360 | 6.0 | 14.0 | 0.00 | 0.00 | 0.00 | 33 | 1002.4 |
| 20260504204530 | 80 | 318 | 6.0 | 14.0 | 0.00 | 0.00 | 0.00 | 34 | 1002.4 |
| 20260504204049 | 80 | 340 | 7.0 | 11.0 | 0.00 | 0.00 | 0.00 | 33 | 1002.3 |
| 20260504203547 | 80 | 324 | 7.0 | 11.0 | 0.00 | 0.00 | 0.00 | 34 | 1002.3 |
| 20260504203044 | 81 | 333 | 4.0 | 11.0 | 0.00 | 0.00 | 0.00 | 33 | 1002.3 |
| 20260504202608 | 80 | 334 | 7.0 | 11.0 | 0.00 | 0.00 | 0.00 | 36 | 1002.3 |
| 20260504202044 | 80 | 349 | 7.0 | 12.0 | 0.00 | 0.00 | 0.00 | 34 | 1002.3 |
| 20260504201541 | 81 | 317 | 7.0 | 11.0 | 0.00 | 0.00 | 0.00 | 33 | 1002.3 |
| 20260504201039 | 81 | 293 | 3.0 | 11.0 | 0.00 | 0.00 | 0.00 | 35 | 1002.1 |
| 20260504200627 | 81 | 296 | 4.0 | 14.0 | 0.00 | 0.00 | 0.00 | 33 | 1002.0 |
| 20260504200045 | 80 | 304 | 6.0 | 14.0 | 0.00 | 0.00 | 0.00 | 32 | 1002.1 |
| 20260504195035 | 80 | 274 | 6.0 | 14.0 | 0.00 | 0.00 | 0.00 | 32 | 1002.1 |
| 20260504194533 | 81 | 314 | 6.0 | 13.0 | 0.00 | 0.00 | 0.00 | 32 | 1002.2 |
| 20260504194034 | 81 | 344 | 6.0 | 16.0 | 0.00 | 0.00 | 0.00 | 31 | 1002.1 |
| 20260504193533 | 81 | 360 | 9.0 | 16.0 | 0.00 | 0.00 | 0.00 | 30 | 1002.1 |
| 20260504193030 | 81 | 282 | 6.0 | 15.0 | 0.00 | 0.00 | 0.00 | 31 | 1001.9 |
| 20260504192549 | 82 | 322 | 6.0 | 15.0 | 0.00 | 0.00 | 0.00 | 31 | 1001.9 |
| 20260504192109 | 82 | 329 | 5.0 | 14.0 | 0.00 | 0.00 | 0.00 | 30 | 1001.9 |
| 20260504191546 | 82 | 342 | 7.0 | 14.0 | 0.00 | 0.00 | 0.00 | 29 | 1001.8 |
| 20260504191044 | 82 | 304 | 9.0 | 13.0 | 0.00 | 0.00 | 0.00 | 28 | 1001.8 |
| 20260504190552 | 81 | 289 | 5.0 | 13.0 | 0.00 | 0.00 | 0.00 | 28 | 1001.8 |
| 20260504190050 | 82 | 286 | 7.0 | 13.0 | 0.00 | 0.00 | 0.00 | 27 | 1001.8 |
| 20260504185546 | 82 | 311 | 7.0 | 12.0 | 0.00 | 0.00 | 0.00 | 30 | 1001.7 |
| 20260504185043 | 82 | 339 | 5.0 | 12.0 | 0.00 | 0.00 | 0.00 | 31 | 1001.7 |
| 20260504184542 | 82 | 340 | 5.0 | 14.0 | 0.00 | 0.00 | 0.00 | 30 | 1001.7 |
| 20260504184101 | 82 | 297 | 5.0 | 14.0 | 0.00 | 0.00 | 0.00 | 31 | 1001.7 |
| 20260504183537 | 82 | 264 | 4.0 | 10.0 | 0.00 | 0.00 | 0.00 | 29 | 1001.6 |
| 20260504183034 | 81 | 266 | 5.0 | 11.0 | 0.00 | 0.00 | 0.00 | 30 | 1001.7 |
| 20260504182532 | 81 | 297 | 5.0 | 11.0 | 0.00 | 0.00 | 0.00 | 29 | 1001.9 |
| 20260504182030 | 81 | 309 | 5.0 | 13.0 | 0.00 | 0.00 | 0.00 | 30 | 1001.9 |
| 20260504181533 | 81 | 325 | 5.0 | 13.0 | 0.00 | 0.00 | 0.00 | 30 | 1001.8 |
| 20260504181050 | 80 | 301 | 4.0 | 11.0 | 0.00 | 0.00 | 0.00 | 31 | 1001.9 |
| 20260504180559 | 81 | 327 | 5.0 | 14.0 | 0.00 | 0.00 | 0.00 | 28 | 1002.1 |
| 20260504180038 | 81 | 335 | 6.0 | 14.0 | 0.00 | 0.00 | 0.00 | 30 | 1002.1 |
| 20260504175536 | 80 | 327 | 7.0 | 14.0 | 0.00 | 0.00 | 0.00 | 30 | 1002.0 |
| 20260504175034 | 80 | 274 | 6.0 | 13.0 | 0.00 | 0.00 | 0.00 | 32 | 1002.1 |
| 20260504174532 | 80 | 279 | 6.0 | 11.0 | 0.00 | 0.00 | 0.00 | 30 | 1002.1 |
| 20260504174030 | 79 | 282 | 5.0 | 11.0 | 0.00 | 0.00 | 0.00 | 33 | 1002.2 |
| 20260504173610 | 79 | 264 | 4.0 | 12.0 | 0.00 | 0.00 | 0.00 | 33 | 1002.2 |
| 20260504173108 | 79 | 296 | 4.0 | 12.0 | 0.00 | 0.00 | 0.00 | 35 | 1002.3 |
| 20260504172545 | 78 | 269 | 5.0 | 10.0 | 0.00 | 0.00 | 0.00 | 33 | 1002.3 |
| 20260504172041 | 78 | 326 | 4.0 | 14.0 | 0.00 | 0.00 | 0.00 | 35 | 1002.3 |
| 20260504171539 | 78 | 277 | 2.0 | 14.0 | 0.00 | 0.00 | 0.00 | 36 | 1002.3 |
| 20260504171034 | 77 | 302 | 6.0 | 11.0 | 0.00 | 0.00 | 0.00 | 35 | 1002.3 |
| 20260504170605 | 77 | 268 | 5.0 | 11.0 | 0.00 | 0.00 | 0.00 | 36 | 1002.4 |
| 20260504151052 | 68 | 270 | 2.0 | 6.0 | 0.00 | 0.00 | 0.00 | 47 | 1002.5 |
| 20260504150620 | 67 | 270 | 2.0 | 7.0 | 0.00 | 0.00 | 0.00 | 48 | 1002.5 |
| 20260504141038 | 63 | 318 | 4.0 | 7.0 | 0.00 | 0.00 | 0.00 | 52 | 1003.0 |
| 20260504140606 | 63 | 304 | 4.0 | 7.0 | 0.00 | 0.00 | 0.00 | 52 | 1002.9 |
| 20260504130610 | 56 | 195 | 0.0 | 2.0 | 0.00 | 0.00 | 0.00 | 65 | 1002.6 |
| 20260504110553 | 54 | 195 | 1.0 | 2.0 | 0.00 | 0.00 | 0.00 | 64 | 1002.4 |
| 20260504100600 | 55 | 195 | 0.0 | 1.0 | 0.00 | 0.00 | 0.00 | 60 | 1002.6 |
| 20260504081555 | 57 | 195 | 0.0 | 2.0 | 0.00 | 0.00 | 0.00 | 56 | 1004.2 |
| 20260504081031 | 57 | 195 | 1.0 | 2.0 | 0.00 | 0.00 | 0.00 | 56 | 1004.3 |
| 20260504080601 | 57 | 195 | 1.0 | 2.0 | 0.00 | 0.00 | 0.00 | 56 | 1004.2 |
| 20260504050559 | 62 | 195 | 0.0 | 2.0 | 0.00 | 0.00 | 0.00 | 48 | 1006.8 |
| 20260504045555 | 62 | 195 | 0.0 | 2.0 | 0.00 | 0.00 | 0.00 | 49 | 1006.9 |
| 20260504045033 | 62 | 195 | 1.0 | 2.0 | 0.00 | 0.00 | 0.00 | 49 | 1006.9 |
| 20260504044551 | 62 | 195 | 1.0 | 2.0 | 0.00 | 0.00 | 0.00 | 49 | 1006.9 |
| 20260504044108 | 62 | 195 | 1.0 | 2.0 | 0.00 | 0.00 | 0.00 | 49 | 1007.0 |
| 20260504043543 | 62 | 195 | 1.0 | 2.0 | 0.00 | 0.00 | 0.00 | 50 | 1007.2 |
| 20260504043037 | 62 | 195 | 1.0 | 2.0 | 0.00 | 0.00 | 0.00 | 49 | 1007.3 |
| 20260504042534 | 62 | 195 | 1.0 | 2.0 | 0.00 | 0.00 | 0.00 | 50 | 1007.3 |
| 20260504042050 | 62 | 195 | 1.0 | 2.0 | 0.00 | 0.00 | 0.00 | 50 | 1007.3 |
| 20260504041546 | 62 | 195 | 1.0 | 2.0 | 0.00 | 0.00 | 0.00 | 47 | 1007.3 |
| 20260504041044 | 62 | 195 | 0.0 | 1.0 | 0.00 | 0.00 | 0.00 | 48 | 1007.4 |
| 20260504040553 | 63 | 195 | 0.0 | 1.0 | 0.00 | 0.00 | 0.00 | 47 | 1007.4 |
| 20260504040051 | 63 | 195 | 0.0 | 1.0 | 0.00 | 0.00 | 0.00 | 48 | 1007.4 |
| 20260504035546 | 63 | 195 | 0.0 | 0.0 | 0.00 | 0.00 | 0.00 | 47 | 1007.5 |
| 20260504035042 | 64 | 195 | 0.0 | 0.0 | 0.00 | 0.00 | 0.00 | 47 | 1007.5 |
| 20260504034538 | 64 | 195 | 0.0 | 5.0 | 0.00 | 0.00 | 0.00 | 46 | 1007.6 |
| 20260504034039 | 65 | 195 | 1.0 | 5.0 | 0.00 | 0.00 | 0.00 | 45 | 1007.6 |
| 20260504033554 | 65 | 195 | 0.0 | 0.0 | 0.00 | 0.00 | 0.00 | 43 | 1007.6 |
| 20260504033049 | 65 | 195 | 0.0 | 2.0 | 0.00 | 0.00 | 0.00 | 44 | 1007.7 |
| 20260504032544 | 65 | 195 | 0.0 | 2.0 | 0.00 | 0.00 | 0.00 | 43 | 1007.7 |
| 20260504032100 | 65 | 195 | 1.0 | 2.0 | 0.00 | 0.00 | 0.00 | 42 | 1007.7 |
| 20260504031535 | 66 | 195 | 0.0 | 1.0 | 0.00 | 0.00 | 0.00 | 42 | 1007.8 |
| 20260504031051 | 65 | 195 | 0.0 | 1.0 | 0.00 | 0.00 | 0.00 | 41 | 1007.8 |
| 20260504030619 | 65 | 195 | 0.0 | 1.0 | 0.00 | 0.00 | 0.00 | 42 | 1007.8 |
| 20260504030034 | 65 | 195 | 0.0 | 1.0 | 0.00 | 0.00 | 0.00 | 42 | 1007.9 |
| 20260504025550 | 65 | 195 | 0.0 | 1.0 | 0.00 | 0.00 | 0.00 | 43 | 1007.9 |
| 20260504025046 | 65 | 195 | 0.0 | 1.0 | 0.00 | 0.00 | 0.00 | 43 | 1007.9 |
| 20260504024540 | 65 | 195 | 1.0 | 1.0 | 0.00 | 0.00 | 0.00 | 44 | 1007.9 |
| 20260504024036 | 65 | 195 | 1.0 | 1.0 | 0.00 | 0.00 | 0.00 | 43 | 1007.9 |
| 20260504023533 | 66 | 195 | 0.0 | 1.0 | 0.00 | 0.00 | 0.00 | 43 | 1008.0 |
| 20260504023048 | 66 | 195 | 0.0 | 0.0 | 0.00 | 0.00 | 0.00 | 43 | 1008.0 |
| 20260504022545 | 66 | 195 | 0.0 | 1.0 | 0.00 | 0.00 | 0.00 | 43 | 1008.1 |
| 20260504022042 | 66 | 195 | 1.0 | 1.0 | 0.00 | 0.00 | 0.00 | 43 | 1008.0 |
| 20260504021538 | 66 | 195 | 0.0 | 2.0 | 0.00 | 0.00 | 0.00 | 43 | 1008.1 |
| 20260504021036 | 66 | 195 | 1.0 | 2.0 | 0.00 | 0.00 | 0.00 | 43 | 1008.0 |
| 20260504020623 | 66 | 195 | 0.0 | 1.0 | 0.00 | 0.00 | 0.00 | 41 | 1008.2 |
| 20260504020041 | 66 | 195 | 0.0 | 0.0 | 0.00 | 0.00 | 0.00 | 41 | 1008.3 |
| 20260504015556 | 67 | 195 | 0.0 | 0.0 | 0.00 | 0.00 | 0.00 | 41 | 1008.2 |
| 20260504015033 | 67 | 195 | 0.0 | 1.0 | 0.00 | 0.00 | 0.00 | 41 | 1008.3 |
| 20260504014533 | 68 | 195 | 0.0 | 1.0 | 0.00 | 0.00 | 0.00 | 40 | 1008.3 |
| 20260504014050 | 68 | 195 | 0.0 | 1.0 | 0.00 | 0.00 | 0.00 | 39 | 1008.2 |
| 20260504013607 | 69 | 195 | 0.0 | 2.0 | 0.00 | 0.00 | 0.00 | 38 | 1008.2 |
| 20260504013043 | 69 | 195 | 1.0 | 2.0 | 0.00 | 0.00 | 0.00 | 38 | 1008.2 |
| 20260504012049 | 70 | 195 | 1.0 | 3.0 | 0.00 | 0.00 | 0.00 | 37 | 1008.3 |
| 20260504011544 | 70 | 195 | 1.0 | 3.0 | 0.00 | 0.00 | 0.00 | 37 | 1008.3 |
| 20260504011059 | 70 | 195 | 2.0 | 3.0 | 0.00 | 0.00 | 0.00 | 37 | 1008.3 |
| 20260504010605 | 70 | 195 | 1.0 | 5.0 | 0.00 | 0.00 | 0.00 | 37 | 1008.3 |
| 20260504010043 | 71 | 195 | 3.0 | 6.0 | 0.00 | 0.00 | 0.00 | 36 | 1008.4 |
| 20260504005538 | 71 | 195 | 3.0 | 6.0 | 0.00 | 0.00 | 0.00 | 36 | 1008.5 |
| 20260504005035 | 71 | 193 | 3.0 | 7.0 | 0.00 | 0.00 | 0.00 | 35 | 1008.4 |
| 20260504004549 | 71 | 193 | 3.0 | 6.0 | 0.00 | 0.00 | 0.00 | 35 | 1008.5 |
| 20260504004043 | 72 | 207 | 3.0 | 5.0 | 0.00 | 0.00 | 0.00 | 36 | 1008.5 |
| 20260504003539 | 72 | 210 | 3.0 | 4.0 | 0.00 | 0.00 | 0.00 | 35 | 1008.5 |
| 20260504003033 | 72 | 209 | 3.0 | 4.0 | 0.00 | 0.00 | 0.00 | 35 | 1008.5 |
| 20260504002549 | 72 | 209 | 2.0 | 5.0 | 0.00 | 0.00 | 0.00 | 35 | 1008.5 |
| 20260504002043 | 73 | 208 | 3.0 | 7.0 | 0.00 | 0.00 | 0.00 | 35 | 1008.6 |
| 20260504001538 | 73 | 196 | 3.0 | 7.0 | 0.00 | 0.00 | 0.00 | 34 | 1008.6 |
| 20260504001055 | 73 | 212 | 3.0 | 6.0 | 0.00 | 0.00 | 0.00 | 35 | 1008.7 |
| 20260504000603 | 73 | 205 | 4.0 | 6.0 | 0.00 | 0.00 | 0.00 | 34 | 1008.7 |
| 20260504000044 | 73 | 194 | 3.0 | 6.0 | 0.00 | 0.00 | 0.00 | 35 | 1008.7 |
| 20260503235540 | 74 | 198 | 3.0 | 7.0 | 0.00 | 0.00 | 0.00 | 34 | 1008.7 |
| 20260503235038 | 74 | 198 | 4.0 | 7.0 | 0.00 | 0.00 | 0.00 | 34 | 1008.7 |
| 20260503234533 | 74 | 186 | 3.0 | 7.0 | 0.00 | 0.00 | 0.00 | 34 | 1008.8 |
| 20260503234047 | 75 | 203 | 3.0 | 7.0 | 0.00 | 0.00 | 0.00 | 34 | 1008.7 |
| 20260503233543 | 75 | 198 | 3.0 | 8.0 | 0.00 | 0.00 | 0.00 | 33 | 1008.8 |
| 20260503233039 | 75 | 195 | 2.0 | 8.0 | 0.00 | 0.00 | 0.00 | 32 | 1008.9 |
| 20260503232536 | 76 | 208 | 4.0 | 7.0 | 0.00 | 0.00 | 0.00 | 33 | 1008.9 |
| 20260503232032 | 76 | 197 | 3.0 | 5.0 | 0.00 | 0.00 | 0.00 | 29 | 1009.0 |
| 20260503231609 | 76 | 233 | 1.0 | 5.0 | 0.00 | 0.00 | 0.00 | 30 | 1008.9 |
| 20260503231043 | 76 | 248 | 1.0 | 2.0 | 0.00 | 0.00 | 0.00 | 31 | 1009.0 |
| 20260503230551 | 76 | 248 | 1.0 | 3.0 | 0.00 | 0.00 | 0.00 | 32 | 1009.0 |
| 20260503230048 | 75 | 248 | 1.0 | 5.0 | 0.00 | 0.00 | 0.00 | 32 | 1009.0 |
| 20260503225545 | 75 | 248 | 3.0 | 5.0 | 0.00 | 0.00 | 0.00 | 31 | 1009.0 |
| 20260503225040 | 75 | 303 | 2.0 | 4.0 | 0.00 | 0.00 | 0.00 | 30 | 1008.9 |
| 20260503224555 | 75 | 267 | 2.0 | 7.0 | 0.00 | 0.00 | 0.00 | 31 | 1009.0 |
| 20260503224050 | 75 | 347 | 4.0 | 7.0 | 0.00 | 0.00 | 0.00 | 32 | 1009.1 |
| 20260503223545 | 75 | 269 | 4.0 | 6.0 | 0.00 | 0.00 | 0.00 | 31 | 1009.1 |
| 20260503223040 | 75 | 183 | 1.0 | 4.0 | 0.00 | 0.00 | 0.00 | 33 | 1009.1 |
| 20260503222540 | 75 | 170 | 1.0 | 5.0 | 0.00 | 0.00 | 0.00 | 31 | 1009.0 |
| 20260503222036 | 75 | 190 | 4.0 | 5.0 | 0.00 | 0.00 | 0.00 | 32 | 1009.1 |
| 20260503221628 | 75 | 1 | 1.0 | 4.0 | 0.00 | 0.00 | 0.00 | 32 | 1009.0 |